Location: Unspecified
(30.8073°N, 0.0000°E)
Time: 16:07:20
(UTC+00:00)

XW-2D - Visible Passes

Search period start: 23 October 2019 00:00
Search period end: 02 November 2019 00:00
Orbit: 507 x 529 km, 97.5° (Epoch: 23 October)

Date Brightness Start Highest point End Pass type
(mag) Time Alt. Az. Time Alt. Az. Time Alt. Az.
23 Oct ? 18:23:17 10° WSW 18:24:27 11° W 18:25:39 10° WNW visible
24 Oct ? 18:07:42 10° SW 18:10:15 17° W 18:12:49 10° NW visible
25 Oct ? 17:52:51 10° SSW 17:56:04 27° W 17:59:17 10° NW visible
26 Oct ? 05:29:31 10° NNE 05:33:02 40° E 05:36:33 10° S visible
26 Oct ? 17:38:19 10° S 17:41:54 42° W 17:45:28 10° NNW visible
27 Oct ? 05:15:44 10° NE 05:18:51 25° E 05:21:59 10° SSE visible
28 Oct ? 05:02:15 10° NE 05:04:40 16° E 05:07:04 10° SE visible
29 Oct ? 04:49:43 10° E 04:50:26 10° E 04:51:10 10° ESE visible
30 Oct ? 18:17:45 10° WSW 18:19:32 13° W 18:21:19 10° WNW visible
31 Oct ? 18:02:32 10° SW 18:05:19 20° W 18:08:07 10° NW visible
01 Nov ? 05:38:34 10° NNE 05:42:15 55° E 05:45:56 10° S visible
01 Nov ? 17:47:47 10° SSW 17:51:08 31° W 17:54:29 10° NW visible
